Вернуться в каталог

SL-8 DEB

АктивенLEO
NORAD 21724·DEBRIS·🇷🇺 Russia

Запущен Feb 12, 1991 с Plesetsk Cosmodrome

Loading…

Ближайшие Пролёты (ближайшие 24 часа)

TLE

СвежийSource: Space-Track

Эпоха: Sep 14, 2026, 05:46 UTC

1 21724U 91009BZ  26257.24074814  .00000169  00000-0  16541-2 0  9992
2 21724  73.9836   2.5311 0205950 215.0656 166.7744 12.20620872557497

Отслеживайте SL-8 DEB в реальном времени с AllMySat

Download on the App Store